Regional Weather Roundup
Issued by NWS

Home | Current Version | Previous Version | Graphics & Text | Print | Product List | Glossary On
Versions: 1 2 3 4 5 6 7 8 9 10 11 12 13 14 15 16 17 18 19 20 21 22 23 24 25 26 27 28 29 30 31 32 33 34 35 36 37 38 39 40 41 42 43 44 45 46 47 48 49 50
481
ASUS44 KJAN 251703
RWRMS

MISSISSIPPI HOURLY WEATHER ROUNDUP
NATIONAL WEATHER SERVICE JACKSON MS
1200 PM CDT SAT OCT 25 2014

NOTE: "FAIR: INDICATES FEW OR NO CLOUDS BELOW 12,000 FEET WITH NO
SIGNIFICANT WEATHER AND/OR OBSTRUCTIONS TO VISIBILITY.

MSZ001>002-007>008-010>013-018>021-025>028-034>036-251800-
NORTHWEST MISSISSIPPI

CITY           SKY/WX    TMP DP  RH WIND       PRES   REMARKS
CLARKSDALE     FAIR      77  61  57 W7        30.12F
CLEVELAND      FAIR      76  62  61 W6        30.12F
GREENWOOD      SUNNY     74  58  57 SW7       30.14F
GREENVILLE     SUNNY     76  58  53 W10       30.13F
GRENADA          N/A    N/A N/A N/A MISG        N/A
OLIVE BRANCH   PTSUNNY   73  63  68 SW7       30.10F
OXFORD         FAIR      73  59  60 W9        30.13F
TUNICA         SUNNY     75  61  60 W7        30.11F
$$

MSZ003>006-009-014>017-022>024-029>033-037>039-251800-
NORTHEAST MISSISSIPPI

CITY           SKY/WX    TMP DP  RH WIND       PRES   REMARKS
COLUMBUS AFB   SUNNY     74  57  56 NW7       30.12F
CORINTH        FAIR      77  61  57 W6G12     30.08F
GOLDN TRIANGLE SUNNY     75  57  53 NW7       30.13F
STARKVILLE     FAIR      73  57  56 NW5       30.13F
TUPELO         SUNNY     76  59  55 W10       30.10F
$$

MSZ040-058-251800-
CENTRAL MISSISSIPPI

CITY           SKY/WX    TMP DP  RH WIND       PRES   REMARKS
JACKSON INTL   SUNNY     75  57  53 N7        30.16F
JACKSON HAWKNS SUNNY     74  57  55 NW7       30.17F
MERIDIAN KEY   SUNNY     75  56  51 N8        30.14F
MERIDIAN NAS   SUNNY     73  55  53 NW10      30.15F
RAYMOND        FAIR      73  68  83 N5        30.17F
VICKSBURG      SUNNY     76  56  49 CALM      30.17F
$$

MSZ059>079-251800-
SOUTH MISSISSIPPI

CITY           SKY/WX    TMP DP  RH WIND       PRES   REMARKS
BROOKHAVEN     FAIR      73  55  53 NW5       30.18F
COLUMBIA         N/A    N/A N/A N/A MISG        N/A
HATTIESBURG    SUNNY     74  56  53 N6        30.15F
MCCOMB         SUNNY     75  52  44 N8        30.16F
NATCHEZ        SUNNY     72  57  60 CALM      30.18F
PINE BELT      SUNNY     75  54  46 N7        30.16F
$$

MSZ080>082-251800-
COASTAL MISSISSIPPI

CITY           SKY/WX    TMP DP  RH WIND       PRES   REMARKS
BAY ST LOUIS   SUNNY     73  48  40 NE7       30.14F
BILOXI         SUNNY     75  53  46 NE9       30.13F
PASCAGOULA     SUNNY     75  54  47 N14G21    30.12F
GULFPORT       SUNNY     74  53  48 N10       30.13F
$$



USA.gov is the U.S. government's official web portal to all federal, state and local government web resources and services.